{"data":{"norad_id":60132,"intl_designator":"2024-118V","name":"STARLINK-31792","alt_names":[],"object_type":"PAYLOAD","status":"ACTIVE","operator":null,"country":"US","launch_date":"2024-06-24","launch_site_code":"AFWTR","launch_vehicle":null,"mission":null,"orbit_class":"UNKNOWN","rcs_meters":null,"size_class":null,"mass_kg":null,"dimensions":null,"purposes":["comms"],"wikipedia_slug":null,"has_3d_model":false,"image_url":null,"decayed_at":null,"tle_current":{"epoch":"2026-09-21T12:03:36.876096Z","epoch_age_seconds":94907,"freshness":"FRESH","line1":"1 60132U 24118V   26264.50251014 -.00000503  00000+0 -37637-5 0  9996","line2":"2 60132  53.1611 193.0660 0001288  76.6627 283.4519 15.34391202125739","mean_motion":15.34391202,"eccentricity":0.0001288,"inclination_deg":53.1611,"raan_deg":193.066,"arg_perigee_deg":76.6627,"mean_anomaly_deg":283.4519,"bstar":-3.7637e-6,"rev_number":12573,"period_min":93.848296192199,"perigee_km":461.84828625114,"apogee_km":463.61049343316,"semimajor_km":6840.8663898421,"source":"CELESTRAK","updated_at":"2026-09-22T09:00:49.175976Z"}}}